GW6491 Weather Reports


time (UTC)temp
C
wind
direction
speed
KPH
gust
KPH
rain 1hr
cm
rain 24hr
cm
rain mn
cm
humidity
%
barometer
mb
20260509185923 26 0 1.6 8.0 0.00 0.23 0.23 100 1009.6
20260509185420 26 0 3.2 11.3 0.00 0.23 0.23 100 1009.6
20260509184917 26 0 1.6 8.0 0.00 0.23 0.23 100 1009.3
20260509184414 26 0 3.2 9.7 0.00 0.23 0.23 100 1009.3
20260509183911 26 0 3.2 9.7 0.00 0.23 0.23 100 1009.3
20260509183405 26 0 6.4 11.3 0.00 0.23 0.23 100 1009.3
20260509182902 26 0 9.7 17.7 0.00 0.23 0.23 100 1009.3
20260509182358 26 0 8.0 20.9 0.00 0.23 0.23 100 1009.0
20260509181856 26 0 8.0 14.5 0.00 0.23 0.23 100 1009.0
20260509181353 26 0 8.0 17.7 0.00 0.23 0.23 100 1009.0
20260509180851 26 0 8.0 19.3 0.00 0.23 0.23 100 1009.0
20260509180346 26 0 6.4 14.5 0.00 0.23 0.23 100 1009.3
20260509175843 26 0 9.7 24.1 0.00 0.23 0.23 100 1009.3
20260509175339 26 0 6.4 16.1 0.00 0.23 0.23 100 1009.0
20260509174835 26 0 8.0 17.7 0.00 0.23 0.23 100 1009.0
20260509174331 26 0 6.4 11.3 0.00 0.23 0.23 100 1009.0
20260509173827 26 0 8.0 16.1 0.00 0.23 0.23 100 1009.0
20260509173323 26 0 6.4 12.9 0.00 0.23 0.23 100 1009.0
20260509172819 26 0 6.4 12.9 0.00 0.23 0.23 100 1009.0
20260509172316 26 0 6.4 9.7 0.00 0.23 0.23 100 1009.0
20260509171812 26 0 8.0 17.7 0.00 0.23 0.23 100 1009.0
20260509171308 26 0 8.0 16.1 0.00 0.23 0.23 100 1009.0
20260509170805 26 0 8.0 14.5 0.00 0.23 0.23 100 1009.0
20260509170300 26 0 9.7 17.7 0.00 0.23 0.23 100 1009.0
20260509165800 26 0 6.4 14.5 0.00 0.23 0.23 100 1009.0
20260509165255 26 0 6.4 9.7 0.00 0.23 0.23 100 1008.6
20260509164751 26 0 3.2 8.0 0.00 0.23 0.23 100 1008.6
20260509164247 26 0 8.0 16.1 0.00 0.23 0.23 100 1009.0
20260509163745 26 0 4.8 17.7 0.00 0.23 0.23 100 1009.0
20260509163240 26 0 9.7 20.9 0.00 0.23 0.23 100 1009.0
20260509162739 26 0 6.4 11.3 0.00 0.23 0.23 100 1009.3
20260509162233 26 0 3.2 6.4 0.00 0.23 0.23 100 1009.3
20260509161729 26 0 1.6 3.2 0.00 0.23 0.23 100 1009.3
20260509161226 26 0 1.6 6.4 0.00 0.23 0.23 100 1009.3
20260509160721 26 0 0.0 1.6 0.00 0.23 0.23 100 1009.3
20260509160217 26 0 1.6 3.2 0.00 0.23 0.23 100 1009.3
20260509155712 26 0 3.2 8.0 2.39 0.15 0.15 100 1009.3
20260509155209 26 0 1.6 6.4 2.39 0.05 0.05 100 1009.3
20260509154705 26 0 3.2 3.2 0.00 0.00 0.00 100 1009.3
20260509154202 26 0 1.6 6.4 0.00 0.00 0.00 100 1009.3
20260509153659 26 0 1.6 3.2 0.00 0.00 0.00 100 1009.3
20260509153156 26 0 3.2 4.8 0.00 0.00 0.00 100 1009.6
20260509152651 26 0 0.0 0.0 0.00 0.00 0.00 100 1009.6
20260509152149 26 0 4.8 9.7 0.00 0.00 0.00 100 1009.6
20260509151645 26 0 1.6 4.8 0.00 0.00 0.00 100 1009.6
20260509151143 26 0 3.2 11.3 0.00 0.00 0.00 100 1009.6
20260509150641 26 0 4.8 8.0 0.00 0.00 0.00 100 1009.6
20260509150139 26 0 3.2 6.4 0.00 0.00 0.00 100 1009.6
20260509145635 26 0 4.8 11.3 0.00 0.00 0.00 100 1009.6
20260509145130 26 0 0.0 1.6 0.00 0.00 0.00 100 1009.6
20260509144627 26 0 0.0 1.6 0.00 0.00 0.00 100 1009.6
20260509144124 26 0 1.6 4.8 0.00 0.00 0.00 100 1010.0
20260509143621 26 0 0.0 0.0 0.00 0.00 0.00 100 1010.0
20260509143119 26 0 0.0 0.0 0.00 0.00 0.00 100 1010.0
20260509142614 26 0 0.0 0.0 0.00 0.00 0.00 100 1010.0
20260509142110 26 0 0.0 0.0 0.00 0.00 0.00 100 1010.0
20260509141606 26 0 0.0 0.0 0.00 0.00 0.00 100 1010.3
20260509141103 26 0 0.0 0.0 0.00 0.00 0.00 100 1010.3
20260509140600 26 0 0.0 0.0 0.00 0.00 0.00 100 1010.3
20260509140058 26 0 1.6 4.8 0.00 0.00 0.00 100 1010.3
20260509135555 26 0 0.0 0.0 0.00 0.74 0.74 100 1010.3
20260509135053 26 0 0.0 0.0 0.00 0.74 0.74 100 1010.3
20260509134549 26 0 0.0 0.0 0.00 0.74 0.74 100 1010.3
20260509134047 26 0 0.0 0.0 0.00 0.74 0.74 100 1010.7
20260509133543 26 0 0.0 0.0 0.00 0.74 0.74 100 1010.7
20260509133041 26 0 0.0 0.0 0.00 0.74 0.74 100 1010.7
20260509132539 26 0 0.0 1.6 1.19 0.71 0.71 100 1010.7
20260509132037 26 0 0.0 3.2 3.61 0.61 0.61 100 1010.7
20260509131533 26 0 4.8 8.0 3.61 0.43 0.43 100 1010.7
20260509131030 26 0 3.2 6.4 1.19 0.38 0.38 100 1010.7
20260509130525 26 0 3.2 6.4 0.00 0.38 0.38 100 1011.0
20260509130023 26 0 3.2 6.4 0.00 0.38 0.38 100 1011.0
20260509125519 26 0 3.2 6.4 0.00 0.38 0.38 100 1011.0
20260509125016 26 0 1.6 3.2 0.00 0.38 0.38 100 1011.0
20260509124513 26 0 3.2 9.7 0.00 0.36 0.36 100 1011.0
20260509124010 26 0 4.8 9.7 0.00 0.36 0.36 100 1011.0
20260509123508 26 0 4.8 9.7 0.00 0.36 0.36 100 1011.0
20260509123003 26 0 4.8 11.3 0.00 0.36 0.36 100 1011.0
20260509122500 26 0 3.2 8.0 0.00 0.36 0.36 100 1011.0
20260509121957 26 0 4.8 8.0 0.00 0.36 0.36 100 1011.0
20260509121454 26 0 6.4 8.0 0.00 0.36 0.36 100 1011.0
20260509120952 26 0 3.2 6.4 0.00 0.36 0.36 100 1011.0
20260509120449 26 0 3.2 8.0 0.00 0.36 0.36 100 1011.0
20260509115947 26 0 1.6 6.4 0.00 0.36 0.36 100 1011.0
20260509115444 26 0 3.2 6.4 0.00 0.36 0.36 100 1011.0
20260509114941 26 0 0.0 4.8 0.00 0.36 0.36 100 1011.0
20260509114440 26 0 0.0 0.0 0.00 0.36 0.36 100 1011.0
20260509113939 26 0 0.0 0.0 0.00 0.36 0.36 100 1011.0
20260509113436 26 0 0.0 0.0 0.00 0.36 0.36 100 1011.0
20260509112933 26 0 0.0 0.0 0.00 0.36 0.36 100 1010.7
20260509112430 26 0 0.0 0.0 0.00 0.36 0.36 100 1010.7
20260509111927 26 0 0.0 3.2 0.00 0.36 0.36 100 1010.7
20260509111424 26 0 1.6 4.8 0.00 0.36 0.36 100 1010.7
20260509110922 26 0 4.8 6.4 0.00 0.36 0.36 100 1010.7
20260509110417 26 0 4.8 8.0 0.00 0.36 0.36 100 1010.7
20260509105916 26 0 6.4 9.7 0.00 0.36 0.36 100 1010.3
20260509105414 26 0 6.4 8.0 0.00 0.36 0.36 100 1010.3
20260509104910 26 0 0.0 0.0 0.00 0.36 0.36 100 1010.3
20260509104407 26 0 0.0 0.0 0.00 0.36 0.36 100 1010.3
20260509103905 26 0 3.2 6.4 0.00 0.36 0.36 100 1010.3
20260509103401 26 0 1.6 4.8 0.00 0.36 0.36 100 1010.0
20260509102900 26 0 1.6 4.8 0.00 0.36 0.36 100 1010.0
20260509102357 26 0 0.0 0.0 0.00 0.36 0.36 100 1010.0
20260509101852 26 0 0.0 0.0 0.00 0.36 0.36 100 1010.0
20260509101349 26 0 3.2 6.4 0.00 0.36 0.36 100 1010.0
20260509100847 26 0 1.6 4.8 0.00 0.36 0.36 100 1010.0
20260509100344 26 0 0.0 0.0 0.00 0.36 0.36 100 1010.0
20260509095841 26 0 0.0 0.0 0.00 0.36 0.36 100 1010.0
20260509095338 26 0 3.2 6.4 0.00 0.36 0.36 100 1010.0
20260509094835 26 0 4.8 6.4 0.00 0.36 0.36 100 1009.6
20260509094332 26 0 4.8 6.4 0.00 0.36 0.36 100 1009.6
20260509093829 26 0 4.8 6.4 0.00 0.36 0.36 100 1009.6
20260509093326 26 0 3.2 6.4 0.00 0.36 0.36 100 1009.6
20260509092825 26 0 0.0 0.0 0.00 0.36 0.36 100 1009.6
20260509092322 26 0 0.0 0.0 0.00 0.36 0.36 100 1009.6
20260509091820 26 0 0.0 3.2 0.00 0.36 0.36 100 1009.6
20260509091317 26 0 3.2 4.8 0.00 0.36 0.36 100 1009.6
20260509090814 26 0 0.0 4.8 0.00 0.36 0.36 100 1009.6
20260509090311 26 0 0.0 0.0 0.00 0.36 0.36 100 1009.6
20260509085808 26 0 0.0 0.0 0.00 0.36 0.36 100 1009.6
20260509085307 26 0 0.0 3.2 0.00 0.36 0.36 100 1009.6
20260509084802 26 0 3.2 8.0 0.00 0.36 0.36 100 1009.6
20260509084259 26 0 8.0 11.3 0.00 0.36 0.36 100 1009.6
20260509083757 26 0 9.7 14.5 0.00 0.36 0.36 100 1009.6
20260509083253 26 0 8.0 14.5 0.00 0.36 0.36 100 1009.6
20260509082750 26 0 4.8 8.0 0.00 0.36 0.36 100 1009.6
20260509082246 26 0 8.0 11.3 0.00 0.36 0.36 100 1009.3
20260509081744 26 0 8.0 11.3 0.00 0.36 0.36 100 1009.3
20260509081241 26 0 9.7 11.3 0.00 0.36 0.36 100 1009.3
20260509080739 26 0 6.4 9.7 0.00 0.36 0.36 100 1009.3
20260509080237 26 0 8.0 11.3 0.00 0.36 0.36 100 1009.3
20260509075734 26 0 9.7 12.9 0.00 0.36 0.36 100 1009.0
20260509075232 26 0 8.0 11.3 0.00 0.36 0.36 100 1009.0
20260509074729 26 0 9.7 14.5 0.00 0.36 0.36 100 1009.0
20260509074226 26 0 9.7 14.5 0.00 0.36 0.36 100 1009.0
20260509073722 26 0 11.3 16.1 0.00 0.36 0.36 100 1009.0
20260509073219 26 0 12.9 16.1 0.00 0.36 0.36 100 1009.0
20260509072715 26 0 11.3 17.7 0.00 0.36 0.36 100 1008.6
20260509072212 26 0 9.7 11.3 0.00 0.36 0.36 100 1008.6
20260509071709 26 0 8.0 12.9 0.00 0.36 0.36 100 1008.6
20260509071206 26 0 9.7 14.5 0.00 0.36 0.36 100 1008.6
20260509070703 26 0 9.7 12.9 0.00 0.36 0.36 100 1008.6
20260509070200 26 0 8.0 11.3 0.00 0.36 0.36 100 1008.3
20260509065655 26 0 6.4 11.3 0.00 0.36 0.36 100 1008.0
20260509065152 26 0 8.0 11.3 0.00 0.36 0.36 100 1008.0
20260509064649 26 0 6.4 9.7 0.00 0.36 0.36 100 1008.0
20260509064146 26 0 4.8 6.4 0.00 0.36 0.36 100 1008.0
20260509063643 26 0 4.8 6.4 0.00 0.36 0.36 100 1008.0
20260509063140 26 0 4.8 6.4 0.00 0.36 0.36 100 1008.0
20260509062637 26 0 6.4 8.0 0.00 0.36 0.36 100 1008.0
20260509062134 26 0 6.4 8.0 0.00 0.36 0.36 100 1008.0
20260509061630 26 0 6.4 11.3 0.00 0.36 0.36 100 1007.6
20260509061128 26 0 8.0 9.7 0.00 0.36 0.36 100 1007.6
20260509060626 26 0 8.0 11.3 0.00 0.36 0.36 100 1007.6
20260509060121 26 0 8.0 11.3 0.00 0.36 0.36 100 1007.6
20260509055617 26 0 9.7 12.9 0.00 0.36 0.36 100 1007.6
20260509055113 26 0 6.4 9.7 0.00 0.36 0.36 100 1008.0
20260509054610 26 0 8.0 12.9 0.00 0.36 0.36 100 1007.6
20260509054108 26 0 0.0 3.2 0.00 0.36 0.36 100 1007.6
20260509053607 26 0 1.6 4.8 0.00 0.36 0.36 100 1007.3
20260509053103 26 0 1.6 6.4 0.00 0.36 0.36 100 1007.6
20260509052601 26 0 3.2 8.0 0.00 0.36 0.36 100 1007.6
20260509052059 26 0 6.4 9.7 0.00 0.36 0.36 100 1007.6
20260509051556 26 0 9.7 14.5 0.00 0.36 0.36 100 1007.6
20260509051053 26 0 9.7 14.5 0.00 0.36 0.36 100 1007.6
20260509050550 26 0 1.6 9.7 0.00 0.36 0.36 100 1007.6
20260509050046 26 0 4.8 9.7 0.00 0.36 0.36 100 1007.6
20260509045544 26 0 8.0 14.5 0.00 0.36 0.36 100 1007.6
20260509045040 26 0 14.5 19.3 0.00 0.33 0.33 100 1007.6
20260509044538 26 0 11.3 19.3 0.00 0.33 0.33 100 1007.6
20260509044035 26 0 11.3 19.3 0.00 0.33 0.33 100 1007.6
20260509043531 26 0 11.3 16.1 0.00 0.33 0.33 100 1007.6
20260509043027 26 0 12.9 19.3 0.00 0.33 0.33 100 1007.6
20260509042524 26 0 12.9 19.3 0.00 0.33 0.33 100 1007.6
20260509042020 26 0 12.9 17.7 0.00 0.33 0.33 100 1007.6
20260509041517 26 0 12.9 19.3 0.00 0.33 0.33 100 1007.6
20260509041015 26 0 12.9 20.9 0.00 0.33 0.33 100 1007.6
20260509040513 26 0 14.5 19.3 0.00 0.33 0.33 100 1007.6
20260509040009 26 0 12.9 17.7 0.00 0.33 0.33 100 1007.6
20260509035506 26 0 12.9 17.7 0.00 0.33 0.33 100 1007.6
20260509035003 26 0 12.9 19.3 0.00 0.33 0.33 100 1007.6
20260509034501 26 0 14.5 19.3 0.00 0.33 0.33 100 1008.0
20260509033957 26 0 14.5 20.9 0.00 0.33 0.33 100 1008.0
20260509033454 26 0 14.5 20.9 0.00 0.33 0.33 100 1008.0
20260509032951 26 0 12.9 19.3 0.00 0.33 0.33 100 1008.0
20260509032448 26 0 16.1 20.9 0.00 0.33 0.33 100 1008.0
20260509031946 26 0 14.5 24.1 0.00 0.33 0.33 100 1008.0
20260509031443 26 0 12.9 24.1 0.00 0.33 0.33 100 1008.0
20260509030940 26 0 14.5 24.1 0.00 0.33 0.33 100 1008.0
20260509030438 26 0 16.1 27.4 0.00 0.33 0.33 100 1008.3
20260509025935 26 0 14.5 24.1 0.00 0.33 0.33 100 1008.3
20260509025431 26 0 16.1 24.1 0.00 0.33 0.33 100 1008.3
20260509024926 26 0 14.5 22.5 0.00 0.33 0.33 100 1008.3
20260509024422 26 0 17.7 24.1 0.00 0.33 0.33 100 1008.3
20260509023919 26 0 14.5 22.5 0.00 0.33 0.33 100 1008.3
20260509023417 26 0 16.1 24.1 0.00 0.33 0.33 100 1008.3
20260509022913 26 0 12.9 19.3 0.00 0.33 0.33 100 1008.6
20260509022411 26 0 12.9 20.9 0.00 0.33 0.33 100 1008.6
20260509021908 26 0 11.3 20.9 0.00 0.33 0.33 100 1008.6
20260509021405 26 0 12.9 19.3 0.00 0.33 0.33 100 1009.0
20260509020902 26 0 12.9 17.7 0.00 0.33 0.33 100 1009.0
20260509020400 26 0 11.3 17.7 0.00 0.33 0.33 100 1009.0
20260509015857 26 0 8.0 17.7 0.00 0.33 0.33 100 1009.0
20260509015355 26 0 6.4 12.9 0.00 0.33 0.33 100 1009.0
20260509014852 26 0 8.0 20.9 0.00 0.33 0.33 100 1009.3
20260509014349 26 0 16.1 24.1 0.00 0.33 0.33 100 1009.3
20260509013845 26 0 14.5 27.4 0.00 0.33 0.33 100 1009.3
20260509013342 26 0 9.7 19.3 0.00 0.33 0.33 100 1009.3
20260509012838 26 0 9.7 19.3 0.00 0.33 0.33 100 1009.6
20260509012334 26 0 11.3 22.5 1.19 0.28 0.28 100 1009.6
20260509011832 26 0 24.1 37.0 1.19 0.13 0.13 100 1009.6
20260509011329 26 0 16.1 22.5 0.00 0.13 0.13 100 1009.6
20260509010827 26 0 12.9 20.9 0.00 0.13 0.13 100 1009.6
20260509010324 26 0 16.1 20.9 0.00 0.13 0.13 100 1009.6
20260509005821 26 0 17.7 24.1 0.00 0.13 0.13 100 1009.6
20260509005319 26 0 16.1 24.1 0.00 0.13 0.13 100 1009.6
20260509004819 26 0 17.7 27.4 0.00 0.13 0.13 100 1009.6
20260509004315 26 0 17.7 29.0 0.00 0.13 0.13 100 1009.6
20260509003814 26 0 17.7 27.4 0.00 0.13 0.13 100 1009.6
20260509003312 26 0 16.1 24.1 0.00 0.13 0.13 100 1009.6
20260509002809 26 0 16.1 24.1 0.00 0.13 0.13 100 1009.6
20260509002306 26 0 19.3 29.0 0.00 0.13 0.13 100 1009.6
20260509001804 26 0 16.1 24.1 0.00 0.13 0.13 100 1009.6
20260509001259 26 0 14.5 20.9 0.00 0.13 0.13 100 1010.0
20260509000757 26 0 14.5 20.9 0.00 0.13 0.13 100 1010.0
20260509000256 26 0 16.1 24.1 0.00 0.13 0.13 100 1010.3
20260508235751 26 0 16.1 24.1 0.00 0.13 0.13 100 1010.3
20260508235247 26 0 12.9 19.3 0.00 0.13 0.13 100 1010.3
20260508234745 26 0 16.1 22.5 0.00 0.13 0.13 100 1010.3
20260508234241 26 0 16.1 22.5 0.00 0.13 0.13 100 1010.3
20260508233740 26 0 16.1 20.9 0.00 0.13 0.13 100 1010.3
20260508233238 26 0 14.5 22.5 0.00 0.13 0.13 100 1010.7
20260508232735 26 0 16.1 22.5 0.00 0.13 0.13 100 1010.7
20260508232232 26 0 17.7 25.7 0.00 0.13 0.13 100 1010.7
20260508231730 26 0 12.9 25.7 0.00 0.13 0.13 100 1010.7
20260508231226 26 0 17.7 22.5 0.00 0.13 0.13 100 1010.7
20260508230723 26 0 16.1 25.7 0.00 0.13 0.13 100 1010.7
20260508230219 26 0 17.7 25.7 0.00 0.13 0.13 100 1010.7
20260508225718 26 0 14.5 24.1 0.00 0.13 0.13 100 1010.7
20260508225214 26 0 17.7 27.4 0.00 0.13 0.13 100 1010.7
20260508224712 26 0 16.1 24.1 0.00 0.13 0.13 100 1010.7
20260508224209 26 0 17.7 24.1 0.00 0.13 0.13 100 1010.7
20260508223706 26 0 14.5 20.9 0.00 0.13 0.13 100 1010.7
20260508223203 26 0 14.5 20.9 0.00 0.13 0.13 100 1010.7
20260508222701 26 0 17.7 25.7 0.00 0.13 0.13 100 1010.7
20260508222158 26 0 14.5 22.5 0.00 0.13 0.13 100 1010.7
20260508221654 26 0 11.3 14.5 0.00 0.13 0.13 100 1010.7
20260508221150 26 0 12.9 20.9 0.00 0.13 0.13 100 1010.7
20260508220647 26 0 12.9 22.5 0.00 0.13 0.13 100 1010.7
20260508220143 26 0 17.7 24.1 0.00 0.13 0.13 100 1010.3
20260508215640 26 0 16.1 24.1 0.00 0.13 0.13 100 1010.3
20260508215137 26 0 16.1 27.4 0.00 0.13 0.13 100 1010.3
20260508214634 26 0 14.5 20.9 0.00 0.13 0.13 100 1010.3
20260508214131 26 0 14.5 25.7 0.00 0.13 0.13 100 1010.3
20260508213627 26 0 16.1 25.7 0.00 0.13 0.13 100 1010.3
20260508213123 26 0 12.9 22.5 0.00 0.13 0.13 100 1010.3
20260508212620 26 0 11.3 19.3 0.00 0.13 0.13 100 1010.3
20260508212117 26 0 11.3 20.9 0.00 0.13 0.13 100 1010.3
20260508211612 26 0 11.3 24.1 0.00 0.13 0.13 100 1010.3
20260508211109 26 0 12.9 22.5 0.00 0.13 0.13 100 1010.0
20260508210605 26 0 12.9 22.5 0.00 0.13 0.13 100 1010.0
20260508205600 26 0 14.5 25.7 0.00 0.13 0.13 100 1009.6
20260508205056 26 0 14.5 20.9 0.00 0.13 0.13 100 1009.6
20260508204552 26 0 12.9 24.1 0.00 0.13 0.13 100 1009.6
20260508204048 26 0 11.3 17.7 0.00 0.13 0.13 100 1009.6
20260508203545 26 0 14.5 27.4 0.00 0.13 0.13 100 1009.6
20260508203041 26 0 12.9 24.1 0.00 0.13 0.13 100 1009.3
20260508202537 26 0 12.9 19.3 0.00 0.13 0.13 100 1009.3
20260508202035 26 0 4.8 9.7 0.00 0.13 0.13 100 1009.3
20260508201531 26 0 4.8 11.3 0.00 0.13 0.13 100 1009.3
20260508201028 26 0 8.0 20.9 0.00 0.13 0.13 100 1009.3
20260508200525 26 0 8.0 12.9 0.00 0.13 0.13 100 1009.0
20260508200021 26 0 4.8 9.7 0.00 0.13 0.13 100 1009.0
20260508195518 26 0 14.5 22.5 0.00 0.13 0.13 100 1009.0
20260508195014 26 0 11.3 16.1 0.00 0.13 0.13 100 1009.0
20260508194511 26 0 6.4 12.9 0.00 0.13 0.13 100 1009.0
20260508194008 26 0 11.3 20.9 0.00 0.13 0.13 100 1009.0
20260508193504 26 0 9.7 16.1 0.00 0.13 0.13 100 1009.0
20260508193001 26 0 9.7 16.1 0.00 0.13 0.13 100 1008.6
20260508192458 26 0 11.3 17.7 0.00 0.13 0.13 100 1008.6
20260508191955 26 0 9.7 17.7 0.00 0.13 0.13 100 1008.6
20260508191452 26 0 11.3 19.3 0.00 0.13 0.13 100 1008.6
20260508190949 26 0 4.8 9.7 0.00 0.13 0.13 100 1008.3
20260508190446 26 0 6.4 12.9 0.00 0.13 0.13 100 1008.3